星链-36917(STARLINK-36917)

导读

STARLINK-36917(NORAD编号68059)是美国SpaceX公司研制运营的Starlink星链互联网项目卫星,采用Starlink V1.0平台设计,属于低轨通信卫星。该星轨道倾角70.003°,近地点570.236km、远地点573.934km,轨道周期约96.1分钟,每日绕地球运行近15圈。作为星链星座的组成部分,它配备相控阵天线,可同时连接多个地面终端,为全球尤其是偏远区域提供高速低延迟互联网接入服务,也可支持军事、航空等领域的通信需求,助力缩小全球数字鸿沟。

基本信息
目录编号:
68059
目录名称:
STARLINK-36917
国际标识:
2026-041V
轨道中心:
EARTH
卫星名称:
星链-36917
卫星全名:
星链-36917(STARLINK-36917)
卫星状态:
在轨 (已飞行195 天)
发射日期:
2026-03-02 UTC
国别 :
美国 (US)
星等 :
--
该卫星已列入 空间交会检测服务 Space Conjunction Data Service (SCDS) ,当前飞行风险评估等级: 无高风险
轨道信息
数据来源 国际轨道数据
星历时间: 2026-09-12T14:47:14+0800
1天前
查看轨道信息
半长轴: 6840.854km
偏心率: 0.000117
轨道倾角: 53.158°
近地点辐角 89.401°
升交点赤经 258.403°
平近点角 270.713°
近地点: 461.916km
远地点: 463.518km
周期: 93.848分钟
每日圈数: 15.343955
详细信息
固有亮度:
5
最大亮度:
2.5
卫星平台:
Starlink V1.0
覆盖范围:
全球
运营商:
太空探索技术公司
运营商所在国:
美国
制造商(研发单位):
太空探索技术公司
制造商所在国:
美国
使用方式:
暂无
卫星简介
Starlink 计划是 SpaceX 推出的全球卫星互联网项目,通过发射低轨道卫星,为全球尤其是偏远地区提供高速、低延迟的互联网服务。自 2019 年起,Starlink 已部署数千颗卫星,旨在缩小全球数字鸿沟,推动互联网普及。该项目还为军事、航空等行业提供通信支持,带来广泛经济效益。
2D轨道图
3D轨道图
轨道高度分析图
轨道倾角分析图
轨道综合分析图
查看轨道综合分析图
交会数据列表
事件ID 空间交会对象 最接近时刻(TCA) 交会距离 交会风险概率(CRP) 交会风险指数(CRI) 操作
CDM_260915-032905-882906-805921
2026-09-15T
03:29:07+0000
0.654 km
远距离
9.039282E-5 中风险 0.74
CDM_260915-021905-838206-805921
2026-09-15T
02:19:40+0000
0.537 km
远距离
8.912572E-5 中风险 0.74
CDM_260915-231205-362206-805921
2026-09-15T
23:12:04+0000
0.833 km
远距离
4.289165E-5 中风险 0.68
CDM_260915-015505-882906-805921
2026-09-15T
01:55:20+0000
2.426 km
极远距离
1.636747E-6 低风险 0.39
与全量物体交会距离演化趋势
与全量物体交会风险概率演化趋势